BRS01 SBBR-SBFN

Flight info

Callsign BRS01
Flight time N/A
Altitude 39000
Route EPDEP UZ78 KOPKI DCT DIDUK DCT ILMIG
Aircraft A319/M-SDE3FGHIRWY/LB1

Departure

Time N/A
Airport Presidente Juscelino Kubitschek International Airport (SBBR)

Arrival

Time 2026-05-03 22:43
Airport Fernando de Noronha Airport (SBFN)
Time Latitude Longitude Altitude Speed Heading
2026-05-03 22:12 -5.46192 -35.02324 38979 ft 460 kts 64°
2026-05-03 22:12 -5.44889 -34.99397 38978 ft 459 kts 64°
2026-05-03 22:13 -5.42290 -34.93541 38981 ft 459 kts 64°
2026-05-03 22:13 -5.39696 -34.87685 38983 ft 459 kts 64°
2026-05-03 22:14 -5.37099 -34.81835 38978 ft 459 kts 64°
2026-05-03 22:14 -5.34492 -34.75989 38972 ft 459 kts 64°
2026-05-03 22:15 -5.31891 -34.70148 38972 ft 458 kts 64°
2026-05-03 22:15 -5.29289 -34.64306 38971 ft 459 kts 64°
2026-05-03 22:16 -5.26682 -34.58466 38972 ft 459 kts 64°
2026-05-03 22:16 -5.24078 -34.52623 38970 ft 459 kts 65°
2026-05-03 22:17 -5.21504 -34.46811 38970 ft 459 kts 65°
2026-05-03 22:17 -5.18911 -34.40971 38972 ft 458 kts 65°
2026-05-03 22:18 -5.16310 -34.35136 38970 ft 458 kts 65°
2026-05-03 22:18 -5.13705 -34.29311 38967 ft 458 kts 65°
2026-05-03 22:19 -5.11104 -34.23488 38961 ft 457 kts 65°
2026-05-03 22:19 -5.08506 -34.17668 38960 ft 457 kts 65°
2026-05-03 22:20 -5.05913 -34.11845 38961 ft 457 kts 65°
2026-05-03 22:20 -5.03319 -34.06023 38962 ft 457 kts 65°
2026-05-03 22:21 -5.00677 -34.00233 38959 ft 456 kts 60°
2026-05-03 22:21 -4.98969 -33.97560 38845 ft 455 kts 51°
2026-05-03 22:21 -4.96981 -33.95097 38595 ft 455 kts 50°
2026-05-03 22:21 -4.94978 -33.92643 38346 ft 454 kts 50°
2026-05-03 22:22 -4.92977 -33.90193 38072 ft 454 kts 50°
2026-05-03 22:22 -4.90963 -33.87724 37408 ft 461 kts 50°
2026-05-03 22:22 -4.88909 -33.85205 36393 ft 473 kts 50°
2026-05-03 22:22 -4.86828 -33.82650 35614 ft 471 kts 50°
2026-05-03 22:23 -4.84764 -33.80110 34611 ft 470 kts 50°
2026-05-03 22:23 -4.82704 -33.77569 33697 ft 468 kts 50°
2026-05-03 22:23 -4.80656 -33.75045 32891 ft 464 kts 50°
2026-05-03 22:23 -4.78644 -33.72573 32381 ft 452 kts 50°
2026-05-03 22:24 -4.76667 -33.70149 31712 ft 447 kts 50°
2026-05-03 22:24 -4.74714 -33.67754 31116 ft 440 kts 50°
2026-05-03 22:24 -4.72793 -33.65400 30537 ft 432 kts 50°
2026-05-03 22:24 -4.70908 -33.63085 29961 ft 425 kts 50°
2026-05-03 22:25 -4.69055 -33.60805 29393 ft 418 kts 51°
2026-05-03 22:25 -4.67256 -33.58592 28840 ft 411 kts 51°
2026-05-03 22:25 -4.65458 -33.56382 28298 ft 405 kts 51°
2026-05-03 22:25 -4.63691 -33.54211 27766 ft 399 kts 50°
2026-05-03 22:26 -4.61945 -33.52067 27242 ft 394 kts 50°
2026-05-03 22:26 -4.60228 -33.49958 26742 ft 388 kts 50°
2026-05-03 22:26 -4.58531 -33.47875 26249 ft 384 kts 51°
2026-05-03 22:26 -4.56854 -33.45814 25780 ft 380 kts 51°
2026-05-03 22:27 -4.55191 -33.43769 25311 ft 377 kts 51°
2026-05-03 22:27 -4.53539 -33.41737 24859 ft 374 kts 51°
2026-05-03 22:27 -4.51901 -33.39724 24418 ft 373 kts 51°
2026-05-03 22:27 -4.50255 -33.37706 23951 ft 375 kts 52°
2026-05-03 22:28 -4.48606 -33.35682 23497 ft 375 kts 52°
2026-05-03 22:28 -4.46952 -33.33654 23034 ft 376 kts 51°
2026-05-03 22:28 -4.45290 -33.31621 22558 ft 377 kts 52°
2026-05-03 22:28 -4.43628 -33.29587 22075 ft 377 kts 52°
2026-05-03 22:29 -4.41967 -33.27553 21575 ft 378 kts 52°
2026-05-03 22:29 -4.40305 -33.25512 21060 ft 378 kts 52°
2026-05-03 22:29 -4.38644 -33.23470 20546 ft 378 kts 52°
2026-05-03 22:29 -4.36979 -33.21429 20013 ft 378 kts 51°
2026-05-03 22:30 -4.35315 -33.19390 19483 ft 378 kts 51°
2026-05-03 22:30 -4.33653 -33.17352 18942 ft 377 kts 52°
2026-05-03 22:30 -4.31997 -33.15322 18406 ft 376 kts 52°
2026-05-03 22:30 -4.30346 -33.13295 17863 ft 375 kts 52°
2026-05-03 22:31 -4.28703 -33.11277 17322 ft 373 kts 52°
2026-05-03 22:31 -4.27065 -33.09268 16776 ft 371 kts 52°
2026-05-03 22:31 -4.25438 -33.07271 16237 ft 369 kts 52°
2026-05-03 22:31 -4.23826 -33.05294 15750 ft 365 kts 52°
2026-05-03 22:32 -4.22246 -33.03357 15263 ft 362 kts 52°
2026-05-03 22:32 -4.20657 -33.01411 14732 ft 359 kts 52°
2026-05-03 22:32 -4.19084 -32.99487 14165 ft 357 kts 52°
2026-05-03 22:32 -4.17523 -32.97578 13717 ft 351 kts 52°
2026-05-03 22:33 -4.15972 -32.95680 13199 ft 349 kts 52°
2026-05-03 22:33 -4.14439 -32.93802 12630 ft 348 kts 52°
2026-05-03 22:33 -4.12921 -32.91945 12145 ft 343 kts 52°
2026-05-03 22:33 -4.11416 -32.90100 11678 ft 339 kts 52°
2026-05-03 22:34 -4.09922 -32.88270 11115 ft 338 kts 52°
2026-05-03 22:34 -4.08437 -32.86452 10553 ft 337 kts 52°
2026-05-03 22:34 -4.06961 -32.84642 10173 ft 331 kts 52°
2026-05-03 22:34 -4.05541 -32.82902 10042 ft 314 kts 52°
2026-05-03 22:35 -4.04195 -32.81256 9910 ft 298 kts 52°
2026-05-03 22:35 -4.02902 -32.79675 9610 ft 290 kts 52°
2026-05-03 22:35 -4.01632 -32.78117 9202 ft 288 kts 52°
2026-05-03 22:35 -4.00386 -32.76588 8792 ft 286 kts 52°
2026-05-03 22:36 -3.99134 -32.75053 8388 ft 284 kts 52°
2026-05-03 22:36 -3.97886 -32.73528 7982 ft 282 kts 52°
2026-05-03 22:36 -3.96645 -32.72010 7580 ft 281 kts 52°
2026-05-03 22:36 -3.95416 -32.70501 7175 ft 277 kts 52°
2026-05-03 22:37 -3.94209 -32.69021 6788 ft 271 kts 52°
2026-05-03 22:37 -3.92922 -32.67674 6402 ft 267 kts 39°
2026-05-03 22:37 -3.91318 -32.66769 6009 ft 264 kts 26°
2026-05-03 22:37 -3.89655 -32.66027 5651 ft 259 kts 26°
2026-05-03 22:38 -3.88043 -32.65304 5285 ft 255 kts 26°
2026-05-03 22:38 -3.86442 -32.64582 4919 ft 250 kts 26°
2026-05-03 22:38 -3.84968 -32.63716 4534 ft 243 kts 46°
2026-05-03 22:38 -3.84120 -32.62324 4187 ft 231 kts 76°
2026-05-03 22:39 -3.84036 -32.60769 3870 ft 221 kts 96°
2026-05-03 22:39 -3.84160 -32.59249 3543 ft 218 kts 96°
2026-05-03 22:39 -3.84276 -32.57755 3213 ft 212 kts 96°
2026-05-03 22:39 -3.84386 -32.56307 2920 ft 204 kts 96°
2026-05-03 22:40 -3.84458 -32.55368 2742 ft 197 kts 96°
2026-05-03 22:40 -3.84588 -32.53635 2351 ft 181 kts 96°
2026-05-03 22:40 -3.84678 -32.52429 2097 ft 167 kts 96°
2026-05-03 22:40 -3.84763 -32.51313 1869 ft 155 kts 97°
2026-05-03 22:41 -3.84817 -32.50616 1726 ft 149 kts 97°
2026-05-03 22:41 -3.84894 -32.49613 1521 ft 140 kts 97°
2026-05-03 22:41 -3.84968 -32.48660 1325 ft 135 kts 97°
2026-05-03 22:41 -3.85037 -32.47750 1143 ft 127 kts 97°
2026-05-03 22:42 -3.85103 -32.46890 962 ft 122 kts 97°
2026-05-03 22:42 -3.85164 -32.46047 735 ft 121 kts 96°
2026-05-03 22:42 -3.85224 -32.45214 534 ft 119 kts 97°
2026-05-03 22:42 -3.85283 -32.44453 450 ft 119 kts 97°
2026-05-03 22:43 -3.85341 -32.43620 322 ft 120 kts 96°
2026-05-03 22:43 -3.85404 -32.42802 186 ft 106 kts 95°
2026-05-03 22:43 -3.85441 -32.42343 190 ft 28 kts 94°
2026-05-03 22:43 -3.85457 -32.42158 199 ft 28 kts 95°
2026-05-03 22:44 -3.85471 -32.41993 204 ft 18 kts 95°
2026-05-03 22:44 -3.85479 -32.41902 204 ft 11 kts 95°
2026-05-03 22:44 -3.85486 -32.41783 203 ft 22 kts 94°
2026-05-03 22:44 -3.85497 -32.41610 198 ft 27 kts 94°
2026-05-03 22:45 -3.85503 -32.41495 190 ft 1 kts 84°
2026-05-03 22:45 -3.85498 -32.41495 191 ft 0 kts 25°
2026-05-03 22:45 -3.85496 -32.41497 191 ft 0 kts 345°
2026-05-03 22:45 -3.85496 -32.41502 191 ft 1 kts 285°
2026-05-03 22:46 -3.85500 -32.41525 193 ft 6 kts 263°
2026-05-03 22:46 -3.85499 -32.41585 196 ft 12 kts 274°
2026-05-03 22:46 -3.85492 -32.41682 201 ft 16 kts 274°
2026-05-03 22:46 -3.85483 -32.41807 204 ft 21 kts 274°
2026-05-03 22:47 -3.85471 -32.41965 204 ft 19 kts 274°
2026-05-03 22:47 -3.85461 -32.42103 201 ft 18 kts 275°
2026-05-03 22:47 -3.85449 -32.42247 194 ft 16 kts 274°
2026-05-03 22:47 -3.85439 -32.42397 189 ft 26 kts 274°
2026-05-03 22:48 -3.85427 -32.42548 187 ft 18 kts 274°
2026-05-03 22:48 -3.85417 -32.42678 185 ft 15 kts 275°
2026-05-03 22:48 -3.85442 -32.42740 184 ft 9 kts 206°
2026-05-03 22:48 -3.85483 -32.42755 184 ft 6 kts 200°
2026-05-03 22:49 -3.85519 -32.42767 185 ft 4 kts 197°
2026-05-03 22:49 -3.85543 -32.42776 186 ft 5 kts 206°
2026-05-03 22:49 -3.85550 -32.42824 186 ft 9 kts 275°
2026-05-03 22:49 -3.85548 -32.42848 186 ft 0 kts 275°
2026-05-03 22:50 -3.85554 -32.42858 186 ft 2 kts 228°
2026-05-03 22:50 -3.85572 -32.42863 186 ft 2 kts 184°
2026-05-03 22:50 -3.85589 -32.42864 186 ft 2 kts 184°
2026-05-03 22:50 -3.85594 -32.42865 186 ft 0 kts 184°